Regional Weather Roundup
Issued by NWS

Home | Current Version | Previous Version | Graphics & Text | Print | Product List | Glossary On
Versions: 1 2 3 4 5 6 7 8 9 10 11 12 13 14 15 16 17 18 19 20 21 22 23 24 25 26 27 28 29 30 31 32 33 34 35 36 37 38 39 40 41 42 43 44 45 46 47 48 49 50
000
ASUS43 KTOP 281759
RWRKS

WEATHER ROUNDUP FOR KANSAS
NATIONAL WEATHER SERVICE GOODLAND KS
100 PM CDT SUN AUG 28 2016

NOTE:  "FAIR" INDICATES FEW OR NO CLOUDS BELOW 12,000 FEET WITH NO
SIGNIFICANT WEATHER AND/OR OBSTRUCTIONS TO VISIBILITY.

KSZ001>006-013>018-027>032-041>047-281900-
NORTHWEST KANSAS

CITY           SKY/WX    TMP DP  RH WIND       PRES   REMARKS
GOODLAND       MOSUNNY   80  54  40 S10       30.13S
6HR MIN TEMP:  60; 6HR MAX TEMP:  81;

HAYS           CLOUDY    82  61  47 SW10      30.11S
HILL CITY      MOSUNNY   77  64  64 SE5       30.12R
6HR MIN TEMP:  64; 6HR MAX TEMP:  77; 6HR PCP: TRACE;

RUSSELL        MOSUNNY   84  67  56 S10       30.10R
6HR MIN TEMP:  66; 6HR MAX TEMP:  84;

$$

KSZ061>065-074>080-084>089-281900-
SOUTHWEST KANSAS

CITY           SKY/WX    TMP DP  RH WIND       PRES   REMARKS
DODGE CITY     PTSUNNY   79  60  52 S7        30.14S
6HR MIN TEMP:  65; 6HR MAX TEMP:  79;

ELKHART          N/A     80  61  52 S12         N/A
GARDEN CITY    CLOUDY    79  62  56 S8        30.12F
6HR MIN TEMP:  64; 6HR MAX TEMP:  81;

GREAT BEND     PTSUNNY   82  64  54 S7        30.10F
LIBERAL        SUNNY     82  64  54 S8        30.14S
$$

KSZ066>073-081>083-090>101-281900-
SOUTHEAST KANSAS

CITY           SKY/WX    TMP DP  RH WIND       PRES   REMARKS
CHANUTE        MOSUNNY   83  74  74 E5        30.12F
6HR MIN TEMP:  72; 6HR MAX TEMP:  86;

COFFEYVILLE    MOSUNNY   88  71  57 SW5       30.10F
6HR MIN TEMP:  69; 6HR MAX TEMP:  89;

HUTCHINSON     SUNNY     89  67  47 S13       30.10S
6HR MIN TEMP:  72; 6HR MAX TEMP:  90;

NEWTON         SUNNY     86  71  60 VRB7      30.12F
PARSONS        CLOUDY    89  71  55 CALM      30.12F HX  95
6HR MIN TEMP:  70; 6HR MAX TEMP:  89;

WICHITA INTL   SUNNY     88  70  55 S8        30.10F
6HR MIN TEMP:  73; 6HR MAX TEMP:  88;

WICHITA JABRA  MOSUNNY   86  71  60 SE7       30.10F
6HR MIN TEMP:  72; 6HR MAX TEMP:  86;

WINFIELD       MOSUNNY   87  72  60 S3        30.11F
6HR MIN TEMP:  72; 6HR MAX TEMP:  87;

$$

KSZ007>012-019>026-033>040-048>060-102>105-281900-
NORTHEAST KANSAS

CITY           SKY/WX    TMP DP  RH WIND       PRES   REMARKS
CONCORDIA      SUNNY     87  68  52 S9        30.09F
6HR MIN TEMP:  68; 6HR MAX TEMP:  88;

EMPORIA        SUNNY     86  72  62 SE6       30.11F
6HR MIN TEMP:  70; 6HR MAX TEMP:  86;

LAWRENCE       MOSUNNY   88  73  61 E8        30.11F HX  95
6HR MIN TEMP:  68; 6HR MAX TEMP:  88;

MANHATTAN      MOSUNNY   88  72  58 SE7       30.09F
6HR MIN TEMP:  68; 6HR MAX TEMP:  89;

OLATHE IND     MOSUNNY   86  71  60 SE7       30.14F
6HR MIN TEMP:  71; 6HR MAX TEMP:  86;

OLATHE EXE     SUNNY     85  70  60 MISG      30.14F
6HR MIN TEMP:  70; 6HR MAX TEMP:  86;

SALINA         SUNNY     89  67  47 SE10      30.09F
6HR MIN TEMP:  69; 6HR MAX TEMP:  89;

TOPEKA BILLARD MOSUNNY   88  73  61 SE9       30.11S HX  95
6HR MIN TEMP:  69; 6HR MAX TEMP:  88;

TOPEKA FORBES  PTSUNNY   88  72  58 SE8       30.12F
6HR MIN TEMP:  71; 6HR MAX TEMP:  89;

$$



USA.gov is the U.S. government's official web portal to all federal, state and local government web resources and services.